Time,TemperatureF,DewpointF,PressureIn,WindDirection,WindDirectionDegrees,WindSpeedMPH,WindSpeedGustMPH,Humidity,HourlyPrecipIn,Conditions,Clouds,dailyrainin,SoftwareType,DateUTC
2013-04-14 00:00:00,53.1,40.8,30.00,West,270,0.0,0.0,63,0.00,CLR,,0.00,WeatherDisplay:10.37,2013-04-14 04:00:00,
2013-04-14 00:01:00,52.9,40.6,30.00,West,270,0.0,0.0,63,0.00,CLR,,0.00,WeatherDisplay:10.37,2013-04-14 04:01:00,
2013-04-14 00:02:00,52.9,40.6,30.00,West,270,0.0,0.0,63,0.00,CLR,,0.00,WeatherDisplay:10.37,2013-04-14 04:02:00,
2013-04-14 00:07:00,52.7,40.9,30.00,West,270,0.0,0.0,64,0.00,CLR,,0.00,WeatherDisplay:10.37,2013-04-14 04:07:00,
2013-04-14 00:12:00,52.7,40.9,30.00,West,270,0.0,0.0,64,0.00,CLR,,0.00,WeatherDisplay:10.37,2013-04-14 04:12:00,
2013-04-14 00:17:00,52.3,39.7,30.00,West,270,0.0,0.0,62,0.00,CLR,,0.00,WeatherDisplay:10.37,2013-04-14 04:17:00,
2013-04-14 00:22:00,52.0,39.4,30.00,West,270,0.0,0.0,62,0.00,CLR,,0.00,WeatherDisplay:10.37,2013-04-14 04:22:00,
2013-04-14 00:27:00,52.0,39.8,30.00,West,270,0.0,0.0,63,0.00,CLR,,0.00,WeatherDisplay:10.37,2013-04-14 04:27:00,
2013-04-14 00:32:00,51.6,40.2,30.00,West,270,0.0,0.0,65,0.00,CLR,,0.00,WeatherDisplay:10.37,2013-04-14 04:32:00,
2013-04-14 00:37:00,51.4,40.1,30.00,West,270,0.0,0.0,65,0.00,CLR,,0.00,WeatherDisplay:10.37,2013-04-14 04:37:00,
2013-04-14 00:42:00,51.4,40.5,30.00,West,270,0.0,0.0,66,0.00,CLR,,0.00,WeatherDisplay:10.37,2013-04-14 04:42:00,
2013-04-14 00:47:00,51.3,40.3,30.00,West,270,0.0,0.0,66,0.00,CLR,,0.00,WeatherDisplay:10.37,2013-04-14 04:47:00,
2013-04-14 00:52:00,51.1,39.7,30.00,West,270,0.0,0.0,65,0.00,CLR,,0.00,WeatherDisplay:10.37,2013-04-14 04:52:00,
2013-04-14 00:57:00,50.9,39.5,30.00,West,270,0.0,0.0,65,0.00,CLR,,0.00,WeatherDisplay:10.37,2013-04-14 04:57:00,
2013-04-14 01:02:00,50.7,39.4,30.00,West,270,0.0,0.0,65,0.00,CLR,,0.00,WeatherDisplay:10.37,2013-04-14 05:02:00,
2013-04-14 01:07:00,50.5,39.6,30.00,West,270,0.0,0.0,66,0.00,CLR,,0.00,WeatherDisplay:10.37,2013-04-14 05:07:00,
2013-04-14 01:12:00,50.4,39.4,30.00,West,270,0.0,0.0,66,0.00,CLR,,0.00,WeatherDisplay:10.37,2013-04-14 05:12:00,
2013-04-14 01:17:00,50.2,39.6,30.00,West,270,0.0,0.0,67,0.00,CLR,,0.00,WeatherDisplay:10.37,2013-04-14 05:17:00,
2013-04-14 01:22:00,50.2,40.0,30.00,West,270,0.0,0.0,68,0.00,CLR,,0.00,WeatherDisplay:10.37,2013-04-14 05:22:00,
2013-04-14 01:27:00,50.0,40.6,30.00,West,270,0.0,0.0,70,0.00,CLR,,0.00,WeatherDisplay:10.37,2013-04-14 05:27:00,
2013-04-14 01:32:00,49.5,40.8,30.00,West,270,0.0,0.0,72,0.00,CLR,,0.00,WeatherDisplay:10.37,2013-04-14 05:32:00,
2013-04-14 01:37:00,49.5,40.8,30.00,West,270,0.0,0.0,72,0.00,CLR,,0.00,WeatherDisplay:10.37,2013-04-14 05:37:00,
2013-04-14 01:42:00,49.3,41.0,30.00,West,270,0.0,0.0,73,0.00,CLR,,0.00,WeatherDisplay:10.37,2013-04-14 05:42:00,
2013-04-14 01:47:00,49.1,40.8,30.00,West,270,0.0,0.0,73,0.00,CLR,,0.00,WeatherDisplay:10.37,2013-04-14 05:47:00,
2013-04-14 01:52:00,49.1,41.2,30.00,West,270,0.0,0.0,74,0.00,CLR,,0.00,WeatherDisplay:10.37,2013-04-14 05:52:00,
2013-04-14 01:57:00,48.9,41.0,30.00,West,270,0.0,0.0,74,0.00,CLR,,0.00,WeatherDisplay:10.37,2013-04-14 05:57:00,
2013-04-14 02:02:00,48.7,41.2,30.00,West,270,0.0,0.0,75,0.00,CLR,,0.00,WeatherDisplay:10.37,2013-04-14 06:02:00,
2013-04-14 02:07:00,48.6,41.3,30.00,West,270,0.0,0.0,76,0.00,CLR,,0.00,WeatherDisplay:10.37,2013-04-14 06:07:00,
2013-04-14 02:12:00,48.6,41.3,30.00,West,270,0.0,0.0,76,0.00,CLR,,0.00,WeatherDisplay:10.37,2013-04-14 06:12:00,
2013-04-14 02:17:00,48.4,41.2,30.00,West,270,0.0,0.0,76,0.00,CLR,,0.00,WeatherDisplay:10.37,2013-04-14 06:17:00,
2013-04-14 02:22:00,48.2,41.3,30.00,West,270,0.0,0.0,77,0.00,CLR,,0.00,WeatherDisplay:10.37,2013-04-14 06:22:00,
2013-04-14 02:27:00,48.2,41.7,30.00,West,270,0.0,0.0,78,0.00,CLR,,0.00,WeatherDisplay:10.37,2013-04-14 06:27:00,
2013-04-14 02:32:00,48.2,42.0,30.00,West,270,0.0,0.0,79,0.00,CLR,,0.00,WeatherDisplay:10.37,2013-04-14 06:32:00,
2013-04-14 02:37:00,48.0,42.1,30.00,West,270,0.0,0.0,80,0.00,CLR,,0.00,WeatherDisplay:10.37,2013-04-14 06:37:00,
2013-04-14 02:42:00,47.8,42.0,30.00,West,270,0.0,0.0,80,0.00,CLR,,0.00,WeatherDisplay:10.37,2013-04-14 06:42:00,
2013-04-14 02:48:00,47.8,42.0,30.00,West,270,0.0,0.0,80,0.00,CLR,,0.00,WeatherDisplay:10.37,2013-04-14 06:48:00,
2013-04-14 02:53:00,47.8,42.3,30.00,West,270,0.0,0.0,81,0.00,CLR,,0.00,WeatherDisplay:10.37,2013-04-14 06:53:00,
2013-04-14 02:58:00,47.8,42.6,30.00,West,270,0.0,0.0,82,0.00,CLR,,0.00,WeatherDisplay:10.37,2013-04-14 06:58:00,
2013-04-14 03:03:00,47.7,42.8,30.00,West,270,0.0,0.0,83,0.00,CLR,,0.00,WeatherDisplay:10.37,2013-04-14 07:03:00,
2013-04-14 03:08:00,47.5,42.6,30.00,West,270,0.0,0.0,83,0.00,CLR,,0.00,WeatherDisplay:10.37,2013-04-14 07:08:00,
2013-04-14 03:13:00,47.3,42.7,30.00,West,270,0.0,0.0,84,0.00,CLR,,0.00,WeatherDisplay:10.37,2013-04-14 07:13:00,
2013-04-14 03:18:00,47.1,42.5,30.00,West,270,0.0,0.0,84,0.00,CLR,,0.00,WeatherDisplay:10.37,2013-04-14 07:18:00,
2013-04-14 03:23:00,47.1,42.8,30.00,West,270,0.0,0.0,85,0.00,CLR,,0.00,WeatherDisplay:10.37,2013-04-14 07:23:00,
2013-04-14 03:28:00,46.9,42.7,30.00,West,270,0.0,0.0,85,0.00,CLR,,0.00,WeatherDisplay:10.37,2013-04-14 07:28:00,
2013-04-14 03:33:00,46.8,42.8,30.00,West,270,0.0,0.0,86,0.00,CLR,,0.00,WeatherDisplay:10.37,2013-04-14 07:33:00,
2013-04-14 03:38:00,46.6,42.6,30.00,West,270,0.0,0.0,86,0.00,CLR,,0.00,WeatherDisplay:10.37,2013-04-14 07:38:00,
2013-04-14 03:43:00,46.6,42.6,30.00,West,270,0.0,0.0,86,0.00,CLR,,0.00,WeatherDisplay:10.37,2013-04-14 07:43:00,
2013-04-14 03:48:00,46.4,42.7,30.00,West,270,0.0,0.0,87,0.00,CLR,,0.00,WeatherDisplay:10.37,2013-04-14 07:48:00,
2013-04-14 03:53:00,46.4,42.7,30.00,West,270,0.0,0.0,87,0.00,CLR,,0.00,WeatherDisplay:10.37,2013-04-14 07:53:00,
2013-04-14 03:58:00,46.2,42.6,30.00,West,270,0.0,0.0,87,0.00,CLR,,0.00,WeatherDisplay:10.37,2013-04-14 07:58:00,
2013-04-14 04:03:00,46.0,42.4,30.00,West,270,0.0,0.0,87,0.00,CLR,,0.00,WeatherDisplay:10.37,2013-04-14 08:03:00,
2013-04-14 04:08:00,46.2,42.9,30.00,West,270,0.0,0.0,88,0.00,CLR,,0.00,WeatherDisplay:10.37,2013-04-14 08:08:00,
2013-04-14 04:13:00,46.2,42.9,30.00,West,270,0.0,0.0,88,0.00,CLR,,0.00,WeatherDisplay:10.37,2013-04-14 08:13:00,
2013-04-14 04:18:00,45.9,42.8,30.00,West,270,0.0,0.0,89,0.00,CLR,,0.00,WeatherDisplay:10.37,2013-04-14 08:18:00,
2013-04-14 04:23:00,45.7,42.6,30.00,West,270,0.0,0.0,89,0.00,CLR,,0.00,WeatherDisplay:10.37,2013-04-14 08:23:00,
2013-04-14 04:28:00,45.7,42.9,30.03,West,270,0.0,0.0,90,0.00,CLR,,0.00,WeatherDisplay:10.37,2013-04-14 08:28:00,
2013-04-14 04:33:00,45.5,42.7,30.03,West,270,0.0,0.0,90,0.00,CLR,,0.00,WeatherDisplay:10.37,2013-04-14 08:33:00,
2013-04-14 04:38:00,45.3,42.6,30.03,West,270,0.0,0.0,90,0.00,CLR,,0.00,WeatherDisplay:10.37,2013-04-14 08:38:00,
2013-04-14 04:43:00,45.3,42.6,30.03,West,270,0.0,0.0,90,0.00,CLR,,0.00,WeatherDisplay:10.37,2013-04-14 08:43:00,
2013-04-14 04:48:00,45.1,42.7,30.03,West,270,0.0,0.0,91,0.00,CLR,,0.00,WeatherDisplay:10.37,2013-04-14 08:48:00,
2013-04-14 04:53:00,45.1,42.7,30.03,West,270,0.0,0.0,91,0.00,CLR,,0.00,WeatherDisplay:10.37,2013-04-14 08:53:00,
2013-04-14 04:58:00,45.0,42.5,30.03,West,270,0.0,0.0,91,0.00,CLR,,0.00,WeatherDisplay:10.37,2013-04-14 08:58:00,
2013-04-14 05:03:00,45.0,42.5,30.03,West,270,0.0,0.0,91,0.00,CLR,,0.00,WeatherDisplay:10.37,2013-04-14 09:03:00,
2013-04-14 05:08:00,44.8,42.3,30.03,West,270,0.0,0.0,91,0.00,CLR,,0.00,WeatherDisplay:10.37,2013-04-14 09:08:00,
2013-04-14 05:13:00,44.6,42.4,30.03,West,270,0.0,0.0,92,0.00,CLR,,0.00,WeatherDisplay:10.37,2013-04-14 09:13:00,
2013-04-14 05:18:00,44.6,42.4,30.03,West,270,0.0,0.0,92,0.00,CLR,,0.00,WeatherDisplay:10.37,2013-04-14 09:18:00,
2013-04-14 05:23:00,44.6,42.4,30.03,West,270,0.0,0.0,92,0.00,CLR,,0.00,WeatherDisplay:10.37,2013-04-14 09:23:00,
2013-04-14 05:28:00,44.2,42.1,30.03,West,270,0.0,0.0,92,0.00,CLR,,0.00,WeatherDisplay:10.37,2013-04-14 09:28:00,
2013-04-14 05:33:00,44.2,42.3,30.03,West,270,0.0,0.0,93,0.00,CLR,,0.00,WeatherDisplay:10.37,2013-04-14 09:33:00,
2013-04-14 05:38:00,44.1,42.2,30.03,West,270,0.0,0.0,93,0.00,CLR,,0.00,WeatherDisplay:10.37,2013-04-14 09:38:00,
2013-04-14 05:43:00,44.1,42.2,30.03,West,270,0.0,0.0,93,0.00,CLR,,0.00,WeatherDisplay:10.37,2013-04-14 09:43:00,
2013-04-14 05:48:00,44.1,42.2,30.03,West,270,0.0,0.0,93,0.00,CLR,,0.00,WeatherDisplay:10.37,2013-04-14 09:48:00,
2013-04-14 05:53:00,43.9,42.0,30.03,West,270,0.0,0.0,93,0.00,CLR,,0.00,WeatherDisplay:10.37,2013-04-14 09:53:00,
2013-04-14 05:58:00,43.7,42.1,30.03,West,270,0.0,0.0,94,0.00,CLR,,0.00,WeatherDisplay:10.37,2013-04-14 09:58:00,
2013-04-14 06:03:00,43.5,41.9,30.03,West,270,0.0,0.0,94,0.00,CLR,,0.00,WeatherDisplay:10.37,2013-04-14 10:03:00,
2013-04-14 06:08:00,43.5,41.9,30.03,West,270,0.0,0.0,94,0.00,CLR,,0.00,WeatherDisplay:10.37,2013-04-14 10:08:00,
2013-04-14 06:13:00,43.5,41.9,30.03,West,270,0.0,0.0,94,0.00,CLR,,0.00,WeatherDisplay:10.37,2013-04-14 10:13:00,
2013-04-14 06:18:00,43.7,42.4,30.03,West,270,0.0,0.0,95,0.00,CLR,,0.00,WeatherDisplay:10.37,2013-04-14 10:18:00,
2013-04-14 06:23:00,43.5,42.2,30.03,West,270,0.0,0.0,95,0.00,CLR,,0.00,WeatherDisplay:10.37,2013-04-14 10:23:00,
2013-04-14 06:28:00,43.3,42.0,30.03,West,270,0.0,0.0,95,0.00,CLR,,0.00,WeatherDisplay:10.37,2013-04-14 10:28:00,
2013-04-14 06:33:00,43.3,42.0,30.03,West,270,0.0,0.0,95,0.00,CLR,,0.00,WeatherDisplay:10.37,2013-04-14 10:33:00,
2013-04-14 06:38:00,43.2,41.8,30.03,West,270,0.0,0.0,95,0.00,CLR,,0.00,WeatherDisplay:10.37,2013-04-14 10:38:00,
2013-04-14 06:43:00,43.0,41.6,30.06,West,270,0.0,0.0,95,0.00,CLR,,0.00,WeatherDisplay:10.37,2013-04-14 10:43:00,
2013-04-14 06:48:00,43.0,41.6,30.06,West,270,0.0,0.0,95,0.00,CLR,,0.00,WeatherDisplay:10.37,2013-04-14 10:48:00,
2013-04-14 06:53:00,42.8,41.5,30.06,West,270,0.0,0.0,95,0.00,CLR,,0.00,WeatherDisplay:10.37,2013-04-14 10:53:00,
2013-04-14 06:58:00,42.8,41.7,30.06,West,270,0.0,0.0,96,0.00,CLR,,0.00,WeatherDisplay:10.37,2013-04-14 10:58:00,
2013-04-14 07:03:00,42.8,41.7,30.06,West,270,0.0,0.0,96,0.00,CLR,,0.00,WeatherDisplay:10.37,2013-04-14 11:03:00,
2013-04-14 07:08:00,42.6,41.6,30.06,West,270,0.0,0.0,96,0.00,CLR,,0.00,WeatherDisplay:10.37,2013-04-14 11:08:00,
2013-04-14 07:13:00,42.6,41.6,30.06,West,270,0.0,0.0,96,0.00,CLR,,0.00,WeatherDisplay:10.37,2013-04-14 11:13:00,
2013-04-14 07:18:00,42.8,41.7,30.06,West,270,0.0,0.0,96,0.00,CLR,,0.00,WeatherDisplay:10.37,2013-04-14 11:18:00,
2013-04-14 07:23:00,43.0,41.9,30.06,West,270,0.0,0.0,96,0.00,CLR,,0.00,WeatherDisplay:10.37,2013-04-14 11:23:00,
2013-04-14 07:28:00,42.8,41.7,30.06,West,270,0.0,0.0,96,0.00,CLR,,0.00,WeatherDisplay:10.37,2013-04-14 11:28:00,
2013-04-14 07:33:00,43.0,41.9,30.06,West,270,0.0,0.0,96,0.00,CLR,,0.00,WeatherDisplay:10.37,2013-04-14 11:33:00,
2013-04-14 07:38:00,43.2,42.4,30.06,West,270,0.0,0.0,97,0.00,CLR,,0.00,WeatherDisplay:10.37,2013-04-14 11:38:00,
2013-04-14 07:43:00,43.3,42.5,30.06,West,270,0.0,0.0,97,0.00,CLR,,0.00,WeatherDisplay:10.37,2013-04-14 11:43:00,
2013-04-14 07:48:00,43.5,42.7,30.06,West,270,0.0,0.0,97,0.00,CLR,,0.00,WeatherDisplay:10.37,2013-04-14 11:48:00,
2013-04-14 07:53:00,43.9,43.1,30.06,West,270,0.0,0.0,97,0.00,CLR,,0.00,WeatherDisplay:10.37,2013-04-14 11:53:00,
2013-04-14 07:58:00,44.2,43.4,30.06,West,270,0.0,0.0,97,0.00,CLR,,0.00,WeatherDisplay:10.37,2013-04-14 11:58:00,
2013-04-14 08:03:00,44.8,44.0,30.06,West,270,0.0,0.0,97,0.00,CLR,,0.00,WeatherDisplay:10.37,2013-04-14 12:03:00,
2013-04-14 08:08:00,45.3,44.8,30.06,West,270,0.0,0.0,98,0.00,CLR,,0.00,WeatherDisplay:10.37,2013-04-14 12:08:00,
2013-04-14 08:13:00,45.5,45.0,30.09,West,270,0.0,0.0,98,0.00,CLR,,0.00,WeatherDisplay:10.37,2013-04-14 12:13:00,
2013-04-14 08:18:00,46.0,45.5,30.09,West,270,0.0,0.0,98,0.00,CLR,,0.00,WeatherDisplay:10.37,2013-04-14 12:18:00,
2013-04-14 08:23:00,46.4,45.9,30.09,West,270,0.0,0.0,98,0.00,CLR,,0.00,WeatherDisplay:10.37,2013-04-14 12:23:00,
2013-04-14 08:28:00,47.3,46.8,30.09,West,270,0.0,0.0,98,0.00,CLR,,0.00,WeatherDisplay:10.37,2013-04-14 12:28:00,
2013-04-14 08:33:00,48.0,47.5,30.09,West,270,0.0,0.0,98,0.00,CLR,,0.00,WeatherDisplay:10.37,2013-04-14 12:33:00,
2013-04-14 08:38:00,48.7,48.2,30.09,West,270,0.0,0.0,98,0.00,CLR,,0.00,WeatherDisplay:10.37,2013-04-14 12:38:00,
2013-04-14 08:43:00,49.6,49.1,30.06,West,270,0.0,0.0,98,0.00,CLR,,0.00,WeatherDisplay:10.37,2013-04-14 12:43:00,
2013-04-14 08:48:00,50.5,49.7,30.06,West,270,0.0,0.0,97,0.00,CLR,,0.00,WeatherDisplay:10.37,2013-04-14 12:48:00,
2013-04-14 08:53:00,51.4,50.6,30.06,West,270,0.0,0.0,97,0.00,CLR,,0.00,WeatherDisplay:10.37,2013-04-14 12:53:00,
2013-04-14 08:58:00,52.3,51.2,30.06,West,270,0.0,0.0,96,0.00,CLR,,0.00,WeatherDisplay:10.37,2013-04-14 12:58:00,
2013-04-14 09:03:00,53.8,52.4,30.06,West,270,0.0,0.0,95,0.00,CLR,,0.00,WeatherDisplay:10.37,2013-04-14 13:03:00,
2013-04-14 09:08:00,55.0,53.1,30.06,West,270,0.0,0.0,93,0.00,CLR,,0.00,WeatherDisplay:10.37,2013-04-14 13:08:00,
2013-04-14 09:13:00,56.1,53.2,30.09,West,270,0.0,0.0,90,0.00,CLR,,0.00,WeatherDisplay:10.37,2013-04-14 13:13:00,
2013-04-14 09:18:00,57.4,50.9,30.09,West,270,0.0,0.0,79,0.00,CLR,,0.00,WeatherDisplay:10.37,2013-04-14 13:18:00,
2013-04-14 09:23:00,58.8,47.1,30.09,West,270,0.0,0.0,65,0.00,CLR,,0.00,WeatherDisplay:10.37,2013-04-14 13:23:00,
2013-04-14 09:28:00,59.5,45.2,30.09,West,270,0.0,0.0,59,0.00,CLR,,0.00,WeatherDisplay:10.37,2013-04-14 13:28:00,
2013-04-14 09:33:00,61.3,38.0,30.09,West,270,0.0,0.0,42,0.00,CLR,,0.00,WeatherDisplay:10.37,2013-04-14 13:33:00,
2013-04-14 09:38:00,62.4,37.8,30.09,West,270,0.0,0.0,40,0.00,CLR,,0.00,WeatherDisplay:10.37,2013-04-14 13:38:00,
2013-04-14 09:43:00,62.8,34.7,30.06,SE,135,0.0,0.0,35,0.00,CLR,,0.00,WeatherDisplay:10.37,2013-04-14 13:43:00,
2013-04-14 09:48:00,63.3,34.4,30.06,SE,135,0.0,0.0,34,0.00,CLR,,0.00,WeatherDisplay:10.37,2013-04-14 13:48:00,
2013-04-14 09:53:00,63.7,35.5,30.06,SE,135,0.0,0.0,35,0.00,CLR,,0.00,WeatherDisplay:10.37,2013-04-14 13:53:00,
2013-04-14 09:58:00,63.9,33.4,30.09,SSW,202,0.0,0.0,32,0.00,CLR,,0.00,WeatherDisplay:10.37,2013-04-14 13:58:00,
2013-04-14 10:03:00,64.8,34.2,30.09,NW,315,0.0,0.0,32,0.00,CLR,,0.00,WeatherDisplay:10.37,2013-04-14 14:03:00,
2013-04-14 10:08:00,65.7,35.0,30.09,NW,315,0.0,0.0,32,0.00,CLR,,0.00,WeatherDisplay:10.37,2013-04-14 14:08:00,
2013-04-14 10:13:00,66.7,34.3,30.09,NW,315,0.0,0.0,30,0.00,CLR,,0.00,WeatherDisplay:10.37,2013-04-14 14:13:00,
2013-04-14 10:18:00,67.6,34.2,30.09,NW,315,0.0,0.0,29,0.00,CLR,,0.00,WeatherDisplay:10.37,2013-04-14 14:18:00,
2013-04-14 10:23:00,68.5,35.0,30.09,NW,315,0.0,0.0,29,0.00,CLR,,0.00,WeatherDisplay:10.37,2013-04-14 14:23:00,
2013-04-14 10:28:00,69.6,34.1,30.09,NW,315,0.0,0.0,27,0.00,CLR,,0.00,WeatherDisplay:10.37,2013-04-14 14:28:00,
2013-04-14 10:33:00,70.2,31.7,30.09,SE,135,0.0,0.0,24,0.00,CLR,,0.00,WeatherDisplay:10.37,2013-04-14 14:33:00,
2013-04-14 10:38:00,71.1,31.4,30.09,South,180,0.0,0.0,23,0.00,CLR,,0.00,WeatherDisplay:10.37,2013-04-14 14:38:00,
2013-04-14 10:43:00,72.1,32.3,30.09,South,180,0.0,0.0,23,0.00,CLR,,0.00,WeatherDisplay:10.37,2013-04-14 14:43:00,
2013-04-14 10:48:00,73.2,32.1,30.09,SE,135,0.0,0.0,22,0.00,CLR,,0.00,WeatherDisplay:10.37,2013-04-14 14:48:00,
2013-04-14 10:53:00,73.4,31.1,30.09,West,270,0.0,0.0,21,0.00,CLR,,0.00,WeatherDisplay:10.37,2013-04-14 14:53:00,
2013-04-14 10:58:00,74.3,31.8,30.06,ESE,112,0.0,0.0,21,0.00,CLR,,0.00,WeatherDisplay:10.37,2013-04-14 14:58:00,
2013-04-14 11:03:00,75.9,33.2,30.06,ESE,112,0.0,0.0,21,0.00,CLR,,0.00,WeatherDisplay:10.37,2013-04-14 15:03:00,
2013-04-14 11:08:00,75.7,33.0,30.06,SSE,158,0.0,0.0,21,0.00,CLR,,0.00,WeatherDisplay:10.37,2013-04-14 15:08:00,
2013-04-14 11:13:00,75.7,31.8,30.09,SSE,158,0.0,0.0,20,0.00,CLR,,0.00,WeatherDisplay:10.37,2013-04-14 15:13:00,
2013-04-14 11:18:00,76.3,32.2,30.09,SSE,158,0.0,0.0,20,0.00,CLR,,0.00,WeatherDisplay:10.37,2013-04-14 15:18:00,
2013-04-14 11:23:00,76.5,29.8,30.09,SE,135,0.0,0.0,18,0.00,CLR,,0.00,WeatherDisplay:10.37,2013-04-14 15:23:00,
2013-04-14 11:28:00,78.4,34.0,30.06,WNW,292,0.0,0.0,20,0.00,CLR,,0.00,WeatherDisplay:10.37,2013-04-14 15:28:00,
2013-04-14 11:33:00,78.1,31.1,30.06,North,0,0.0,0.0,18,0.00,CLR,,0.00,WeatherDisplay:10.37,2013-04-14 15:33:00,
2013-04-14 11:38:00,80.8,31.9,30.06,WNW,292,0.0,0.0,17,0.00,CLR,,0.00,WeatherDisplay:10.37,2013-04-14 15:38:00,
2013-04-14 11:43:00,80.8,27.1,30.06,SSE,158,0.0,0.0,14,0.00,CLR,,0.00,WeatherDisplay:10.37,2013-04-14 15:43:00,
2013-04-14 11:48:00,81.7,27.8,30.06,SW,225,0.0,0.0,14,0.00,CLR,,0.00,WeatherDisplay:10.37,2013-04-14 15:48:00,
2013-04-14 11:53:00,82.4,28.4,30.06,SW,225,0.0,0.0,14,0.00,CLR,,0.00,WeatherDisplay:10.37,2013-04-14 15:53:00,
2013-04-14 11:58:00,83.3,29.1,30.09,SSE,158,0.0,0.0,14,0.00,CLR,,0.00,WeatherDisplay:10.37,2013-04-14 15:58:00,
2013-04-14 12:03:00,82.9,28.8,30.09,SE,135,0.0,0.0,14,0.00,CLR,,0.00,WeatherDisplay:10.37,2013-04-14 16:03:00,
2013-04-14 12:08:00,82.8,28.7,30.09,SSE,158,3.6,0.0,14,0.00,CLR,,0.00,WeatherDisplay:10.37,2013-04-14 16:08:00,
2013-04-14 12:13:00,82.9,28.8,30.06,ESE,112,0.0,0.0,14,0.00,CLR,,0.00,WeatherDisplay:10.37,2013-04-14 16:13:00,
2013-04-14 12:18:00,81.9,28.0,30.06,NW,315,3.5,0.0,14,0.00,CLR,,0.00,WeatherDisplay:10.37,2013-04-14 16:18:00,
2013-04-14 12:23:00,83.1,29.0,30.06,SE,135,0.0,0.0,14,0.00,CLR,,0.00,WeatherDisplay:10.37,2013-04-14 16:23:00,
2013-04-14 12:28:00,81.3,27.5,30.06,NW,315,0.0,0.0,14,0.00,CLR,,0.00,WeatherDisplay:10.37,2013-04-14 16:28:00,
2013-04-14 12:33:00,84.0,29.7,30.06,SSW,202,0.0,0.0,14,0.00,CLR,,0.00,WeatherDisplay:10.37,2013-04-14 16:33:00,
2013-04-14 12:38:00,83.3,29.1,30.06,WNW,292,0.0,0.0,14,0.00,CLR,,0.00,WeatherDisplay:10.37,2013-04-14 16:38:00,
2013-04-14 12:43:00,84.0,29.7,30.06,ESE,112,0.0,0.0,14,0.00,CLR,,0.00,WeatherDisplay:10.37,2013-04-14 16:43:00,
2013-04-14 12:48:00,83.5,29.2,30.06,SSE,158,0.0,0.0,14,0.00,CLR,,0.00,WeatherDisplay:10.37,2013-04-14 16:48:00,
2013-04-14 12:53:00,82.4,28.4,30.06,ESE,112,2.2,0.0,14,0.00,CLR,,0.00,WeatherDisplay:10.37,2013-04-14 16:53:00,
2013-04-14 12:58:00,82.0,28.1,30.06,SSE,158,3.5,3.5,14,0.00,CLR,,0.00,WeatherDisplay:10.37,2013-04-14 16:58:00,
2013-04-14 13:03:00,82.4,28.4,30.06,SSE,158,0.0,0.0,14,0.00,CLR,,0.00,WeatherDisplay:10.37,2013-04-14 17:03:00,
2013-04-14 13:08:00,82.6,28.5,30.06,SSE,158,2.3,0.0,14,0.00,CLR,,0.00,WeatherDisplay:10.37,2013-04-14 17:08:00,
2013-04-14 13:13:00,82.9,28.8,30.06,West,270,0.0,0.0,14,0.00,CLR,,0.00,WeatherDisplay:10.37,2013-04-14 17:13:00,
2013-04-14 13:18:00,83.8,29.5,30.06,SSE,158,0.0,0.0,14,0.00,CLR,,0.00,WeatherDisplay:10.37,2013-04-14 17:18:00,
2013-04-14 13:23:00,83.7,29.4,30.06,SE,135,0.0,0.0,14,0.00,CLR,,0.00,WeatherDisplay:10.37,2013-04-14 17:23:00,
2013-04-14 13:28:00,82.8,28.7,30.06,SW,225,0.0,0.0,14,0.00,CLR,,0.00,WeatherDisplay:10.37,2013-04-14 17:28:00,
2013-04-14 13:33:00,83.8,29.5,30.06,South,180,0.0,0.0,14,0.00,CLR,,0.00,WeatherDisplay:10.37,2013-04-14 17:33:00,
2013-04-14 13:38:00,83.8,29.5,30.06,WNW,292,0.0,0.0,14,0.00,CLR,,0.00,WeatherDisplay:10.37,2013-04-14 17:38:00,
2013-04-14 13:43:00,84.2,28.0,30.06,NNW,338,0.0,0.0,13,0.00,CLR,,0.00,WeatherDisplay:10.37,2013-04-14 17:43:00,
2013-04-14 13:48:00,85.1,28.7,30.06,SE,135,0.0,0.0,13,0.00,CLR,,0.00,WeatherDisplay:10.37,2013-04-14 17:48:00,
2013-04-14 13:53:00,84.0,29.7,30.06,SE,135,0.0,0.0,14,0.00,CLR,,0.00,WeatherDisplay:10.37,2013-04-14 17:53:00,
2013-04-14 13:58:00,83.3,29.1,30.03,West,270,0.0,0.0,14,0.00,CLR,,0.00,WeatherDisplay:10.37,2013-04-14 17:58:00,
2013-04-14 14:03:00,82.6,28.5,30.03,West,270,0.0,0.0,14,0.00,CLR,,0.00,WeatherDisplay:10.37,2013-04-14 18:03:00,
2013-04-14 14:08:00,84.0,29.7,30.03,SE,135,0.0,0.0,14,0.00,CLR,,0.00,WeatherDisplay:10.37,2013-04-14 18:08:00,
2013-04-14 14:13:00,84.0,29.7,30.03,NW,315,0.0,0.0,14,0.00,CLR,,0.00,WeatherDisplay:10.37,2013-04-14 18:13:00,
2013-04-14 14:18:00,84.6,28.3,30.03,North,0,0.0,0.0,13,0.00,CLR,,0.00,WeatherDisplay:10.37,2013-04-14 18:18:00,
2013-04-14 14:23:00,85.5,29.0,30.03,NE,45,0.0,0.0,13,0.00,CLR,,0.00,WeatherDisplay:10.37,2013-04-14 18:23:00,
2013-04-14 14:28:00,85.6,29.1,30.03,SE,135,2.3,0.0,13,0.00,CLR,,0.00,WeatherDisplay:10.37,2013-04-14 18:28:00,
2013-04-14 14:33:00,84.0,29.7,30.03,SE,135,0.0,0.0,14,0.00,CLR,,0.00,WeatherDisplay:10.37,2013-04-14 18:33:00,
2013-04-14 14:38:00,84.6,28.3,30.03,NNE,22,0.0,0.0,13,0.00,CLR,,0.00,WeatherDisplay:10.37,2013-04-14 18:38:00,
2013-04-14 14:43:00,86.0,29.4,30.03,South,180,0.0,0.0,13,0.00,CLR,,0.00,WeatherDisplay:10.37,2013-04-14 18:43:00,
2013-04-14 14:48:00,87.3,30.4,30.03,SW,225,0.0,0.0,13,0.00,CLR,,0.00,WeatherDisplay:10.37,2013-04-14 18:48:00,
2013-04-14 14:53:00,87.1,30.3,30.03,NW,315,0.0,0.0,13,0.00,CLR,,0.00,WeatherDisplay:10.37,2013-04-14 18:53:00,
2013-04-14 14:58:00,86.5,29.8,30.03,SSE,158,0.0,0.0,13,0.00,CLR,,0.00,WeatherDisplay:10.37,2013-04-14 18:58:00,
2013-04-14 15:04:00,85.5,29.0,30.03,SSE,158,0.0,0.0,13,0.00,CLR,,0.00,WeatherDisplay:10.37,2013-04-14 19:04:00,
2013-04-14 15:09:00,85.1,28.7,30.03,SSE,158,0.0,0.0,13,0.00,CLR,,0.00,WeatherDisplay:10.37,2013-04-14 19:09:00,
2013-04-14 15:14:00,85.6,29.1,30.00,WNW,292,0.0,0.0,13,0.00,CLR,,0.00,WeatherDisplay:10.37,2013-04-14 19:14:00,
2013-04-14 15:19:00,85.3,28.8,30.00,SE,135,0.0,0.0,13,0.00,CLR,,0.00,WeatherDisplay:10.37,2013-04-14 19:19:00,
2013-04-14 15:24:00,84.9,28.6,30.00,NNW,338,0.0,0.0,13,0.00,CLR,,0.00,WeatherDisplay:10.37,2013-04-14 19:24:00,
2013-04-14 15:29:00,84.9,28.6,30.03,North,0,0.0,0.0,13,0.00,CLR,,0.00,WeatherDisplay:10.37,2013-04-14 19:29:00,
2013-04-14 15:34:00,84.4,28.1,30.03,SSE,158,0.0,0.0,13,0.00,CLR,,0.00,WeatherDisplay:10.37,2013-04-14 19:34:00,
2013-04-14 15:39:00,84.4,28.1,30.03,SE,135,0.0,0.0,13,0.00,CLR,,0.00,WeatherDisplay:10.37,2013-04-14 19:39:00,
2013-04-14 15:44:00,83.7,29.4,30.00,SE,135,0.0,0.0,14,0.00,CLR,,0.00,WeatherDisplay:10.37,2013-04-14 19:44:00,
2013-04-14 15:49:00,83.1,29.0,30.00,NW,315,0.0,0.0,14,0.00,CLR,,0.00,WeatherDisplay:10.37,2013-04-14 19:49:00,
2013-04-14 15:54:00,83.3,29.1,30.00,NW,315,0.0,0.0,14,0.00,CLR,,0.00,WeatherDisplay:10.37,2013-04-14 19:54:00,
2013-04-14 15:59:00,83.3,29.1,30.00,NW,315,0.0,0.0,14,0.00,CLR,,0.00,WeatherDisplay:10.37,2013-04-14 19:59:00,
2013-04-14 16:04:00,83.5,29.2,30.00,NW,315,2.3,0.0,14,0.00,CLR,,0.00,WeatherDisplay:10.37,2013-04-14 20:04:00,
2013-04-14 16:09:00,81.1,27.4,30.00,NNW,338,0.0,0.0,14,0.00,CLR,,0.00,WeatherDisplay:10.37,2013-04-14 20:09:00,
2013-04-14 16:14:00,81.9,28.0,30.00,SSE,158,0.0,0.0,14,0.00,CLR,,0.00,WeatherDisplay:10.37,2013-04-14 20:14:00,
2013-04-14 16:19:00,81.1,27.4,30.00,SSE,158,0.0,0.0,14,0.00,CLR,,0.00,WeatherDisplay:10.37,2013-04-14 20:19:00,
2013-04-14 16:24:00,80.4,28.5,30.00,SW,225,0.0,0.0,15,0.00,CLR,,0.00,WeatherDisplay:10.37,2013-04-14 20:24:00,
2013-04-14 16:29:00,80.6,27.0,30.00,SE,135,0.0,0.0,14,0.00,CLR,,0.00,WeatherDisplay:10.37,2013-04-14 20:29:00,
2013-04-14 16:34:00,80.4,28.5,30.00,WNW,292,0.0,0.0,15,0.00,CLR,,0.00,WeatherDisplay:10.37,2013-04-14 20:34:00,
2013-04-14 16:39:00,80.2,28.4,30.00,South,180,0.0,0.0,15,0.00,CLR,,0.00,WeatherDisplay:10.37,2013-04-14 20:39:00,
2013-04-14 16:44:00,80.2,28.4,30.00,SSE,158,0.0,0.0,15,0.00,CLR,,0.00,WeatherDisplay:10.37,2013-04-14 20:44:00,
2013-04-14 16:49:00,79.9,28.1,30.00,SE,135,0.0,0.0,15,0.00,CLR,,0.00,WeatherDisplay:10.37,2013-04-14 20:49:00,
2013-04-14 16:54:00,79.5,27.8,30.00,SE,135,0.0,0.0,15,0.00,CLR,,0.00,WeatherDisplay:10.37,2013-04-14 20:54:00,
2013-04-14 16:59:00,79.5,27.8,30.00,NE,45,0.0,0.0,15,0.00,CLR,,0.00,WeatherDisplay:10.37,2013-04-14 20:59:00,
2013-04-14 17:04:00,79.3,27.6,30.00,NNW,338,0.0,0.0,15,0.00,CLR,,0.00,WeatherDisplay:10.37,2013-04-14 21:04:00,
2013-04-14 17:09:00,79.0,27.4,30.00,SE,135,0.0,0.0,15,0.00,CLR,,0.00,WeatherDisplay:10.37,2013-04-14 21:09:00,
2013-04-14 17:14:00,78.4,26.9,30.00,SE,135,0.0,0.0,15,0.00,CLR,,0.00,WeatherDisplay:10.37,2013-04-14 21:14:00,
2013-04-14 17:19:00,78.4,26.9,30.00,SSE,158,0.0,0.0,15,0.00,CLR,,0.00,WeatherDisplay:10.37,2013-04-14 21:19:00,
2013-04-14 17:24:00,78.1,26.6,30.00,SSW,202,0.0,0.0,15,0.00,CLR,,0.00,WeatherDisplay:10.37,2013-04-14 21:24:00,
2013-04-14 17:29:00,77.9,26.5,30.00,South,180,0.0,0.0,15,0.00,CLR,,0.00,WeatherDisplay:10.37,2013-04-14 21:29:00,
2013-04-14 17:34:00,77.5,26.2,30.00,SE,135,0.0,0.0,15,0.00,CLR,,0.00,WeatherDisplay:10.37,2013-04-14 21:34:00,
2013-04-14 17:39:00,77.4,30.5,30.00,ENE,68,0.0,0.0,18,0.00,CLR,,0.00,WeatherDisplay:10.37,2013-04-14 21:39:00,
2013-04-14 17:44:00,77.2,25.9,30.03,SE,135,0.0,0.0,15,0.00,CLR,,0.00,WeatherDisplay:10.37,2013-04-14 21:44:00,
2013-04-14 17:49:00,77.0,25.8,30.03,SSE,158,0.0,0.0,15,0.00,CLR,,0.00,WeatherDisplay:10.37,2013-04-14 21:49:00,
2013-04-14 17:54:00,76.6,29.9,30.03,SE,135,0.0,0.0,18,0.00,CLR,,0.00,WeatherDisplay:10.37,2013-04-14 21:54:00,
2013-04-14 17:59:00,76.5,29.8,30.03,SE,135,0.0,0.0,18,0.00,CLR,,0.00,WeatherDisplay:10.37,2013-04-14 21:59:00,
2013-04-14 18:04:00,76.3,29.6,30.03,NNW,338,0.0,0.0,18,0.00,CLR,,0.00,WeatherDisplay:10.37,2013-04-14 22:04:00,
2013-04-14 18:09:00,75.9,31.9,30.03,ESE,112,0.0,0.0,20,0.00,CLR,,0.00,WeatherDisplay:10.37,2013-04-14 22:09:00,
2013-04-14 18:14:00,75.7,29.2,30.03,East,90,0.0,0.0,18,0.00,CLR,,0.00,WeatherDisplay:10.37,2013-04-14 22:14:00,
2013-04-14 18:19:00,75.6,31.6,30.03,NNW,338,0.0,0.0,20,0.00,CLR,,0.00,WeatherDisplay:10.37,2013-04-14 22:19:00,
2013-04-14 18:24:00,75.4,32.7,30.03,NNW,338,0.0,0.0,21,0.00,CLR,,0.00,WeatherDisplay:10.37,2013-04-14 22:24:00,
2013-04-14 18:29:00,75.0,32.4,30.03,NNW,338,0.0,0.0,21,0.00,CLR,,0.00,WeatherDisplay:10.37,2013-04-14 22:29:00,
2013-04-14 18:34:00,74.7,33.3,30.03,NNW,338,0.0,0.0,22,0.00,CLR,,0.00,WeatherDisplay:10.37,2013-04-14 22:34:00,
2013-04-14 18:39:00,74.7,33.3,30.03,NNW,338,0.0,0.0,22,0.00,CLR,,0.00,WeatherDisplay:10.37,2013-04-14 22:39:00,
2013-04-14 18:44:00,74.1,33.9,30.03,NNW,338,0.0,0.0,23,0.00,CLR,,0.00,WeatherDisplay:10.37,2013-04-14 22:44:00,
2013-04-14 18:49:00,73.8,33.6,30.03,NNW,338,0.0,0.0,23,0.00,CLR,,0.00,WeatherDisplay:10.37,2013-04-14 22:49:00,
2013-04-14 18:54:00,73.6,34.5,30.03,NNW,338,0.0,0.0,24,0.00,CLR,,0.00,WeatherDisplay:10.37,2013-04-14 22:54:00,
2013-04-14 18:59:00,73.2,35.3,30.03,NNW,338,0.0,0.0,25,0.00,CLR,,0.00,WeatherDisplay:10.37,2013-04-14 22:59:00,
2013-04-14 19:04:00,72.9,36.0,30.03,NNW,338,0.0,0.0,26,0.00,CLR,,0.00,WeatherDisplay:10.37,2013-04-14 23:04:00,
2013-04-14 19:09:00,72.5,35.6,30.03,NNW,338,0.0,0.0,26,0.00,CLR,,0.00,WeatherDisplay:10.37,2013-04-14 23:09:00,
2013-04-14 19:14:00,72.1,36.3,30.03,NNW,338,0.0,0.0,27,0.00,CLR,,0.00,WeatherDisplay:10.37,2013-04-14 23:14:00,
2013-04-14 19:19:00,71.8,37.8,30.03,NNW,338,0.0,0.0,29,0.00,CLR,,0.00,WeatherDisplay:10.37,2013-04-14 23:19:00,
2013-04-14 19:24:00,71.4,37.5,30.03,NNW,338,0.0,0.0,29,0.00,CLR,,0.00,WeatherDisplay:10.37,2013-04-14 23:24:00,
2013-04-14 19:29:00,71.1,36.3,30.03,NNW,338,0.0,0.0,28,0.00,CLR,,0.00,WeatherDisplay:10.37,2013-04-14 23:29:00,
2013-04-14 19:34:00,70.9,35.2,30.03,NNW,338,0.0,0.0,27,0.00,CLR,,0.00,WeatherDisplay:10.37,2013-04-14 23:34:00,
2013-04-14 19:39:00,70.5,36.7,30.03,NNW,338,0.0,0.0,29,0.00,CLR,,0.00,WeatherDisplay:10.37,2013-04-14 23:39:00,
2013-04-14 19:44:00,70.3,39.1,30.03,NNW,338,0.0,0.0,32,0.00,CLR,,0.00,WeatherDisplay:10.37,2013-04-14 23:44:00,
2013-04-14 19:49:00,70.0,36.2,30.03,NNW,338,0.0,0.0,29,0.00,CLR,,0.00,WeatherDisplay:10.37,2013-04-14 23:49:00,
2013-04-14 19:54:00,69.6,38.4,30.03,NNW,338,0.0,0.0,32,0.00,CLR,,0.00,WeatherDisplay:10.37,2013-04-14 23:54:00,
2013-04-14 19:59:00,69.4,38.3,30.03,NNW,338,0.0,0.0,32,0.00,CLR,,0.00,WeatherDisplay:10.37,2013-04-14 23:59:00,
2013-04-14 20:04:00,69.4,39.1,30.03,NNW,338,0.0,0.0,33,0.00,CLR,,0.00,WeatherDisplay:10.37,2013-04-15 00:04:00,
2013-04-14 20:09:00,69.3,38.9,30.03,NNW,338,0.0,0.0,33,0.00,CLR,,0.00,WeatherDisplay:10.37,2013-04-15 00:09:00,
2013-04-14 20:14:00,69.3,38.1,30.03,NNW,338,0.0,0.0,32,0.00,CLR,,0.00,WeatherDisplay:10.37,2013-04-15 00:14:00,
2013-04-14 20:20:00,69.1,38.8,30.03,NNW,338,0.0,0.0,33,0.00,CLR,,0.00,WeatherDisplay:10.37,2013-04-15 00:20:00,
2013-04-14 20:25:00,68.9,38.6,30.03,NNW,338,0.0,0.0,33,0.00,CLR,,0.00,WeatherDisplay:10.37,2013-04-15 00:25:00,
2013-04-14 20:30:00,68.7,38.4,30.03,NNW,338,0.0,0.0,33,0.00,CLR,,0.00,WeatherDisplay:10.37,2013-04-15 00:30:00,
2013-04-14 20:35:00,68.7,37.7,30.03,NNW,338,0.0,0.0,32,0.00,CLR,,0.00,WeatherDisplay:10.37,2013-04-15 00:35:00,
2013-04-14 20:40:00,68.5,38.3,30.03,NNW,338,0.0,0.0,33,0.00,CLR,,0.00,WeatherDisplay:10.37,2013-04-15 00:40:00,
2013-04-14 20:45:00,68.4,37.3,30.03,NNW,338,0.0,0.0,32,0.00,CLR,,0.00,WeatherDisplay:10.37,2013-04-15 00:45:00,
2013-04-14 20:50:00,68.4,38.1,30.03,NNW,338,0.0,0.0,33,0.00,CLR,,0.00,WeatherDisplay:10.37,2013-04-15 00:50:00,
2013-04-14 20:55:00,68.2,38.0,30.03,NNW,338,0.0,0.0,33,0.00,CLR,,0.00,WeatherDisplay:10.37,2013-04-15 00:55:00,
2013-04-14 21:00:00,68.4,37.3,30.00,NNW,338,0.0,0.0,32,0.00,CLR,,0.00,WeatherDisplay:10.37,2013-04-15 01:00:00,
2013-04-14 21:05:00,68.2,38.0,30.00,NNW,338,0.0,0.0,33,0.00,CLR,,0.00,WeatherDisplay:10.37,2013-04-15 01:05:00,
2013-04-14 21:10:00,68.0,37.8,30.00,NNW,338,0.0,0.0,33,0.00,CLR,,0.00,WeatherDisplay:10.37,2013-04-15 01:10:00,
2013-04-14 21:15:00,68.0,38.6,30.00,NNW,338,0.0,0.0,34,0.00,CLR,,0.00,WeatherDisplay:10.37,2013-04-15 01:15:00,
2013-04-14 21:20:00,67.8,38.4,30.00,NNW,338,0.0,0.0,34,0.00,CLR,,0.00,WeatherDisplay:10.37,2013-04-15 01:20:00,
2013-04-14 21:25:00,67.8,39.2,30.00,NNW,338,0.0,0.0,35,0.00,CLR,,0.00,WeatherDisplay:10.37,2013-04-15 01:25:00,
2013-04-14 21:30:00,67.6,39.7,30.00,NNW,338,0.0,0.0,36,0.00,CLR,,0.00,WeatherDisplay:10.37,2013-04-15 01:30:00,
2013-04-14 21:35:00,67.5,41.0,30.00,NNW,338,0.0,0.0,38,0.00,CLR,,0.00,WeatherDisplay:10.37,2013-04-15 01:35:00,
2013-04-14 21:40:00,67.5,41.0,30.00,NNW,338,0.0,0.0,38,0.00,CLR,,0.00,WeatherDisplay:10.37,2013-04-15 01:40:00,
2013-04-14 21:45:00,67.5,41.6,30.03,NNW,338,0.0,0.0,39,0.00,CLR,,0.00,WeatherDisplay:10.37,2013-04-15 01:45:00,
2013-04-14 21:50:00,67.3,40.8,30.03,NNW,338,0.0,0.0,38,0.00,CLR,,0.00,WeatherDisplay:10.37,2013-04-15 01:50:00,
2013-04-14 21:55:00,67.3,40.1,30.03,NNW,338,0.0,0.0,37,0.00,CLR,,0.00,WeatherDisplay:10.37,2013-04-15 01:55:00,
2013-04-14 22:00:00,67.5,41.0,30.00,NNW,338,0.0,0.0,38,0.00,CLR,,0.00,WeatherDisplay:10.37,2013-04-15 02:00:00,
2013-04-14 22:05:00,67.5,40.3,30.00,NNW,338,0.0,0.0,37,0.00,CLR,,0.00,WeatherDisplay:10.37,2013-04-15 02:05:00,
2013-04-14 22:10:00,67.6,40.4,30.00,NNW,338,0.0,0.0,37,0.00,CLR,,0.00,WeatherDisplay:10.37,2013-04-15 02:10:00,
2013-04-14 22:15:00,67.6,41.1,30.00,NNW,338,0.0,0.0,38,0.00,CLR,,0.00,WeatherDisplay:10.37,2013-04-15 02:15:00,
2013-04-14 22:20:00,67.6,40.4,30.00,NNW,338,0.0,0.0,37,0.00,CLR,,0.00,WeatherDisplay:10.37,2013-04-15 02:20:00,
2013-04-14 22:25:00,67.5,41.0,30.00,NNW,338,0.0,0.0,38,0.00,CLR,,0.00,WeatherDisplay:10.37,2013-04-15 02:25:00,
2013-04-14 22:30:00,67.5,40.3,30.03,NNW,338,0.0,0.0,37,0.00,CLR,,0.00,WeatherDisplay:10.37,2013-04-15 02:30:00,
2013-04-14 22:35:00,67.3,41.5,30.03,NNW,338,0.0,0.0,39,0.00,CLR,,0.00,WeatherDisplay:10.37,2013-04-15 02:35:00,
2013-04-14 22:40:00,67.3,42.1,30.03,NNW,338,0.0,0.0,40,0.00,CLR,,0.00,WeatherDisplay:10.37,2013-04-15 02:40:00,
2013-04-14 22:45:00,67.1,42.0,30.00,NNW,338,0.0,0.0,40,0.00,CLR,,0.00,WeatherDisplay:10.37,2013-04-15 02:45:00,
2013-04-14 22:50:00,66.9,41.8,30.00,NNW,338,0.0,0.0,40,0.00,CLR,,0.00,WeatherDisplay:10.37,2013-04-15 02:50:00,
2013-04-14 22:55:00,66.9,41.8,30.00,NNW,338,0.0,0.0,40,0.00,CLR,,0.00,WeatherDisplay:10.37,2013-04-15 02:55:00,
2013-04-14 23:00:00,66.7,42.3,30.00,NNW,338,0.0,0.0,41,0.00,CLR,,0.00,WeatherDisplay:10.37,2013-04-15 03:00:00,
2013-04-14 23:05:00,66.6,42.7,30.00,NNW,338,0.0,0.0,42,0.00,CLR,,0.00,WeatherDisplay:10.37,2013-04-15 03:05:00,
2013-04-14 23:10:00,66.6,43.4,30.00,NNW,338,0.0,0.0,43,0.00,CLR,,0.00,WeatherDisplay:10.37,2013-04-15 03:10:00,
2013-04-14 23:15:00,66.4,43.8,30.03,NNW,338,0.0,0.0,44,0.00,CLR,,0.00,WeatherDisplay:10.37,2013-04-15 03:15:00,
2013-04-14 23:20:00,66.2,45.4,30.03,NNW,338,0.0,0.0,47,0.00,CLR,,0.00,WeatherDisplay:10.37,2013-04-15 03:20:00,
2013-04-14 23:25:00,65.8,43.9,30.03,NNW,338,0.0,0.0,45,0.00,CLR,,0.00,WeatherDisplay:10.37,2013-04-15 03:25:00,
2013-04-14 23:30:00,65.7,44.9,30.03,NNW,338,0.0,0.0,47,0.00,CLR,,0.00,WeatherDisplay:10.37,2013-04-15 03:30:00,
2013-04-14 23:35:00,65.3,44.5,30.03,NNW,338,0.0,0.0,47,0.00,CLR,,0.00,WeatherDisplay:10.37,2013-04-15 03:35:00,
2013-04-14 23:40:00,65.1,46.0,30.03,NNW,338,0.0,0.0,50,0.00,CLR,,0.00,WeatherDisplay:10.37,2013-04-15 03:40:00,
2013-04-14 23:45:00,64.9,46.9,30.03,NNW,338,0.0,0.0,52,0.00,CLR,,0.00,WeatherDisplay:10.37,2013-04-15 03:45:00,
2013-04-14 23:50:00,64.4,46.9,30.03,NNW,338,0.0,0.0,53,0.00,CLR,,0.00,WeatherDisplay:10.37,2013-04-15 03:50:00,
2013-04-14 23:55:00,63.5,48.5,30.03,NNW,338,0.0,0.0,58,0.00,CLR,,0.00,WeatherDisplay:10.37,2013-04-15 03:55:00,